Starlink 33598

operational
NORAD ID: 62771 Int'l Des: 2025-015 Owner: SPXS Country: US Constellation: starlink
LEOCIRCULAR

Über Starlink 33598

Beschreibung wird geladen...

Live-Position

3D-Globus wird geladen...

Nächste Überflüge

Höhenverlauf

Altitude vs Time

uPlot chart will show altitude changes over time

Zweizeiliger Elementsatz

1 62771U 25015P 25259.68657725 .00012527 00000-0 43412-3 0 9999
2 62771 53.1613 50.4557 0000958 66.9634 293.1468 15.30216838 37848
Epoch: 16. Sept. 2025 • Age: 27 hours

Aktueller Status

Höhe 477.7 km
Geschwindigkeit 7.63 km/s
Subsatellitenpunkt -8.18°S, 65.01°W
Startdatum 21. Jan. 2025
Alter 0.6 years
Typ internet

Technische Details

Klassifizierung Payload
Masse 575.00 kg
Trockenmasse 530.00 kg
Gesamtmasse 575.00 kg
Länge 0.30 m
Durchmesser 4.10 m
Spannweite 29.00 m
Form Box + pan
Hersteller SPXS
Bus-Typ Starlink V2MO
Phasenstatus In Orbit
Besitzer/Staat SPXS/US

Große Konstellationen

Loading constellations...